Regional Weather Roundup
Issued by NWS

Home | Current Version | Previous Version | Text Only | Print | Product List | Glossary Off
Versions: 1 2 3 4 5 6 7 8 9 10 11 12 13 14 15 16 17 18 19 20 21 22 23 24 25 26 27 28 29 30 31 32 33 34 35 36 37 38 39 40 41 42 43 44 45 46 47 48 49 50

000
ASUS43 KFSD 171610
RWRSD

WEATHER ROUNDUP FOR SOUTH DAKOTA
NATIONAL WEATHER SERVICE SIOUX FALLS SD
1000 AM CST TUE JAN 17 2017

NOTE: "FAIR" INDICATES FEW OR NO CLOUDS BELOW 12,000 FEET WITH NO
SIGNIFICANT WEATHER AND/OR OBSTRUCTIONS TO VISIBILITY.


SDZ001>005-009-010-012>017-171700-
NORTHWEST AND NORTH CENTRAL SOUTH DAKOTA

CITY           SKY/WX    TMP DP  RH WIND       PRES   REMARKS
BUFFALO          N/A     22   9  57 SW9       29.81S WCI  12
FAITH            N/A     15   9  76 S15       29.92S WCI   0
MOBRIDGE       CLOUDY    11   5  77 SE9       29.95S WCI  -2
$$

SDZ012>016-024>037-041>051-057-063-072>074-171700-
SOUTHWEST AND SOUTH CENTRAL SOUTH DAKOTA

CITY           SKY/WX    TMP DP  RH WIND       PRES   REMARKS
RAPID CTY ARPT CLOUDY    16   8  71 CALM      29.91F
PIERRE         CLOUDY    14   9  80 CALM      30.00F
CUSTER         CLOUDY    28   6  39 SW3       29.91S
ELLSWORTH AFB  CLOUDY    18   6  61 W6        29.90F WCI  10
PHILIP         CLOUDY    10   6  84 CALM      29.99F
PINE RIDGE     CLOUDY     8   5  87 CALM      29.99S
SPEARFISH      FAIR      28   7  40 CALM      29.91S
WINNER         FAIR      29  20  69 SW6       30.02R WCI  23
$$

SDZ004>011-016>023-039-040-171700-
NORTHEAST SOUTH DAKOTA

CITY           SKY/WX    TMP DP  RH WIND       PRES   REMARKS
ABERDEEN       CLOUDY     4  -1  80 S7        30.01S WCI  -8
WATERTOWN      CLOUDY     4   3  96 SW3       29.98S
BROOKINGS      CLOUDY    17  13  84 CALM      30.00S
SISSETON         N/A     10   7  87 CALM      29.98R
$$

SDZ017-020-022-023-036>040-048>070-171700-
SOUTHEAST SOUTH DAKOTA

CITY           SKY/WX    TMP DP  RH WIND       PRES   REMARKS
SIOUX FALLS    CLOUDY    16  13  88 W5        30.04R WCI   9
HURON          CLOUDY    11   9  92 CALM      30.04R
CHAMBERLAIN    CLOUDY    19  15  82 W7        30.04R WCI  10
MITCHELL       CLOUDY    16  12  84 W6        30.06S WCI   7
YANKTON        SUNNY     19  16  86 CALM      30.07S
$$

ABBREVIATIONS USED IN REMARKS
   TC - TEMPERATURE IN CELSIUS
  WCI - WIND CHILL INDEX
   HX - HEAT INDEX
  VSB - VISIBILITY




USA.gov is the U.S. government's official web portal to all federal, state and local government web resources and services.